Location: Builderbug Observatory
(40.4552°N, 111.7868°W)
Time: 07:39:56

N. Korean satellite - Visible Passes

Search period start: 22 March 2018 00:00
Search period end: 01 April 2018 00:00
Orbit: 460 x 512 km, 97.2° (Epoch: 21 March)

Date Brightness Start Highest point End Pass type
(mag) Time Alt. Az. Time Alt. Az. Time Alt. Az.
22 Mar 10.0 20:21:54 10° SW 20:24:00 14° W 20:26:07 10° WNW visible
26 Mar 10.0 20:19:54 10° SW 20:22:08 15° W 20:24:24 10° NW visible
30 Mar 9.9 20:17:51 10° SW 20:20:13 16° W 20:22:37 10° NW visible
